Lid_Strength_Index
4 4 5 5 5 5 5 5 5 5 3 3 3 3 2 1 1 1 1 1 1 1
5 6 7 6 6 6 7 6 6 5 5 5 4 5 4 3 3 1 1 1 1 1
7 7 7 7 8 8 8 8 8 7 7 7 7 6 6 5 5 5 4 3 2 1
10 9 9 8 8 9 9 9 9 9 9 9 8 7 7 7 6 7 6 5 5 5
11 11 10 10 10 10 10 11 10 11 10 11 10 10 9 9 8 8 8 7 7 7
11 11 12 12 12 11 11 12 12 11 12 11 11 10 10 10 10 10 10 9 9 8
12 12 12 12 12 13 12 12 12 12 12 12 12 11 11 11 11 11 11 10 9 9
12 12 12 12 12 12 12 13 12 12 12 11 12 12 10 11 11 11 11 10 9 8
12 12 12 12 12 12 12 12 11 11 12 12 11 11 10 10 10 10 10 11 10 9
12 12 12 12 12 12 12 12 12 12 12 12 12 11 10 10 11 11 11 11 11 11
13 13 13 13 13 13 13 13 13 13 13 13 12 12 11 11 11 11 11 11 11 11
13 13 13 13 13 13 13 13 13 13 13 13 13 12 12 12 12 12 12 12 12 12
13 14 14 14 14 14 14 14 14 14 14 13 13 13 12 12 13 14 13 13 13 12
14 15 15 15 15 15 15 15 15 14 14 14 14 13 13 13 13 14 14 14 14 13